Location: Unspecified
(34.8291°N, 0.0000°E)
Time: 04:47:45
(UTC+00:00)

Oscar 17 - Visible Passes

Search period start: 04 April 2026 00:00
Search period end: 14 April 2026 00:00
Orbit: 769 x 785 km, 98.9° (Epoch: 29 March)

Date Brightness Start Highest point End Pass type
(mag) Time Alt. Az. Time Alt. Az. Time Alt. Az.
4 Apr 12.4 19:35:06 10° SSW 19:39:37 32° W 19:44:10 10° NW visible
5 Apr 10.9 19:01:05 10° S 19:06:10 72° WSW 19:11:16 10° NNW visible
6 Apr 13.4 20:09:25 10° SW 20:12:16 15° W 20:15:09 10° WNW visible
7 Apr 12.4 19:34:07 10° SSW 19:38:40 33° W 19:43:15 10° NW visible
8 Apr 10.9 19:00:09 10° S 19:05:13 74° WSW 19:10:20 10° NNW visible
9 Apr 13.4 20:08:21 10° SW 20:11:19 16° W 20:14:18 10° WNW visible
10 Apr 12.3 19:33:08 10° SSW 19:37:43 34° W 19:42:21 10° NNW visible
11 Apr 10.8 18:59:12 10° S 19:04:17 77° WSW 19:09:23 10° NNW visible
12 Apr 13.3 20:07:17 10° SW 20:10:22 16° W 20:13:28 10° NW visible
13 Apr 12.2 19:32:09 10° SSW 19:36:46 35° W 19:41:26 10° NNW visible
